Jean Philippe Monclin

Jean Philippe Monclin

Statistiques 2026

  • Courses courues : 76
  • Nb de victoires : 17
  • Nb de places : 35
  • Écart gagnant : 2
  • Réussite à la gagne : 22%
  • Réussite à la place : 46%
Musique : 0a 2a 1a 0a 4a 0a 4a 1a 6a Da 3a Da 3a 1a 1a 3a 5a 2a
DateRangCatégorieAlloc.Dist.HippodromeChevalRed. KmSpé.
29/04/21 3 Trot 18 000€ 2 850m Laval Highlander Jayf 1'15"2 Attelé
29/04/21 1 Trot 20 000€ 2 850m Laval Glycine du Mont 1'16"2 Attelé
29/04/21 6 Trot 36 000€ 2 850m Laval Capital Charm 1'15"2 Attelé lire

Longtemps en retrait, a conclu fort honorablement.

29/04/21 1 Trot 23 000€ 2 850m Laval Flash de Vely 1'14"5 Attelé
30/04/21 8 Trot 53 000€ 2 700m Vincennes Hamilton Renka 1'14"3 Attelé
30/04/21 D Trot 38 000€ 2 175m Vincennes Isla Attelé
02/05/21 5 Trot 17 000€ 2 800m Cholet Flyer Commanderie 1'15"7 Attelé
02/05/21 1 Trot 34 000€ 2 800m Cholet Fronsac Madrik 1'15"1 Attelé
02/05/21 1 Trot 17 000€ 2 800m Cholet Galia Sotho 1'16"1 Attelé
01/05/21 0 Trot 13 000€ 2 625m La Rochelle Iroquois de Busset Attelé
01/05/21 4 Trot 15 000€ 2 625m La Rochelle Grace de Mai 1'16"3 Attelé
01/05/21 2 Trot 15 000€ 2 625m La Rochelle Galet du Leon 1'15"5 Attelé
01/05/21 0 Trot 20 000€ 2 625m La Rochelle Euphrate Desbois Attelé
01/05/21 6 Trot 15 000€ 2 625m La Rochelle Ginger Madrik 1'14"5 Attelé
04/05/21 2 Trot 38 000€ 2 175m Vincennes Ironie du Guelier 1'13"5 Attelé
04/05/21 0 Trot 18 000€ 2 700m Vincennes Capital Charm Attelé
05/05/21 2 Trot 20 000€ 2 875m Maure De Bretagne Harison du Plessis 1'15"5 Attelé
05/05/21 9 Trot 19 000€ 2 850m Maure De Bretagne Grace Renaudine 1'16"6 Attelé
05/05/21 D Trot 19 000€ 2 850m Maure De Bretagne Genepi Arctic Attelé
05/05/21 7 Trot 22 000€ 2 850m Maure De Bretagne Fatal Gwen 1'15"7 Attelé
05/05/21 8 Trot 30 000€ 2 850m Maure De Bretagne Calypso d'Argentre 1'15"6 Attelé
09/05/21 D Trot 70 000€ 2 850m Vincennes Hatika Bourbon Attelé
09/05/21 D Trot 100 000€ 2 850m Vincennes Gainsborough Attelé lire

A été sanctionné à la sortie du premier tournant.

09/05/21 0 Trot 58 000€ 2 700m Vincennes Ciroco d'Auvillier Attelé lire

Très vite à la pointe du combat, a nettement faibli pour finir.

09/05/21 D Trot 37 000€ 2 875m Vincennes Gims du Plessis Attelé
10/05/21 1 Trot 18 000€ 2 450m Caen Instagram 1'17"0 Attelé
10/05/21 D Trot 18 000€ 2 450m Caen Hede Wood Attelé
10/05/21 3 Trot 18 000€ 2 450m Caen Henzo de Moutiers 1'14"3 Attelé
11/05/21 1 Trot 38 000€ 2 100m Vincennes Hymne du Gers 1'12"6 Attelé
14/05/21 3 Trot 14 000€ 2 850m Laval Idden Fortune 1'18"8 Attelé
14/05/21 1 Trot 26 000€ 2 850m Laval O'sunday 1'14"3 Attelé
14/05/21 7 Trot 17 000€ 2 850m Laval Gwendoline 1'16"2 Attelé
14/05/21 1 Trot 14 000€ 2 850m Laval Hadiastart 1'16"3 Attelé
19/05/21 6 Trot 26 000€ 2 200m Caen Gaia d'Occagnes 1'12"8 Attelé lire

Tout de suite en bonne position, a progressivement faibli pour finir.

21/05/21 7 Trot 51 000€ 2 700m Vincennes Caballo d'Aure 1'13"8 Attelé lire

N'a été qu'un simple figurant au sein du peloton.

21/05/21 5 Trot 51 000€ 2 700m Vincennes Cadence Del Fretta 1'15"2 Attelé lire

Après avoir figuré au sein du peloton, a conclu honorablement.

21/05/21 1 Trot 38 000€ 2 175m Vincennes Ideefollebuissonay 1'14"2 Attelé
26/05/21 1 Trot 19 000€ 2 800m Cholet Galia Sotho 1'15"3 Attelé
26/05/21 3 Trot 26 000€ 2 800m Cholet Espoir Rose 1'15"4 Attelé lire

Après avoir attendu au sein du peloton, a conclu de bonne façon.

26/05/21 D Trot 23 000€ 2 800m Cholet Eleven Shapter Attelé
26/05/21 D Trot 15 000€ 2 800m Cholet Indien Pass Attelé
28/05/21 D Trot 18 000€ 2 850m Laval High Energy Attelé
28/05/21 2 Trot 18 000€ 2 850m Laval Highlander Jayf 1'14"3 Attelé
28/05/21 8 Trot 20 000€ 2 850m Laval Gendreenne 1'17"1 Attelé
28/05/21 4 Trot 23 000€ 2 850m Laval Fabuleuse Fligny 1'15"2 Attelé
28/05/21 D Trot 31 000€ 2 850m Laval Dream To Gis Attelé
29/05/21 8 Trot 38 000€ 2 150m Enghien Soisy Ishtar Font 1'14"7 Attelé
29/05/21 D Trot 38 000€ 2 150m Enghien Soisy Isla Attelé
29/05/21 0 Trot 67 000€ 2 150m Enghien Soisy Belle Emotion Attelé lire

N'a joué aucun rôle utile.

29/05/21 1 Trot 37 000€ 2 900m Enghien Soisy Fly Speed 1'13"1 Attelé lire

Après avoir attendu, a progressé dans la ligne opposée, se montrant le plus fort près du but.